VIA003 SVCU-SVMI

Flight info

Callsign VIA003
Flight time N/A
Altitude 22000
Route DCT CUM A552 CBC NETSI1
Aircraft B738/M-SDFGHIRWY/CB1

Departure

Time N/A
Airport Antonio José de Sucre Airport (SVCU)

Arrival

Time 2025-10-05 23:55
Airport Maiquetía Simón Bolívar International Airport (SVMI)
Time Latitude Longitude Altitude Speed Heading
2025-10-05 23:18 10.47420 -64.55250 19534 ft 353 kts 267°
2025-10-05 23:19 10.47543 -64.60300 20648 ft 362 kts 274°
2025-10-05 23:19 10.47730 -64.62855 21172 ft 366 kts 275°
2025-10-05 23:20 10.48140 -64.68034 22254 ft 374 kts 274°
2025-10-05 23:20 10.48539 -64.73338 23195 ft 381 kts 274°
2025-10-05 23:21 10.48925 -64.78760 23940 ft 397 kts 274°
2025-10-05 23:21 10.49541 -64.87643 23910 ft 437 kts 274°
2025-10-05 23:22 10.49963 -64.93771 23909 ft 435 kts 274°
2025-10-05 23:22 10.50382 -64.99894 23913 ft 434 kts 273°
2025-10-05 23:23 10.50781 -65.05999 23913 ft 434 kts 273°
2025-10-05 23:23 10.51170 -65.12122 23912 ft 434 kts 273°
2025-10-05 23:24 10.51364 -65.15200 23913 ft 434 kts 273°
2025-10-05 23:24 10.51752 -65.21333 23913 ft 434 kts 273°
2025-10-05 23:25 10.52140 -65.27417 23913 ft 434 kts 273°
2025-10-05 23:25 10.52765 -65.36603 23914 ft 434 kts 273°
2025-10-05 23:26 10.53186 -65.42733 23914 ft 434 kts 273°
2025-10-05 23:26 10.53604 -65.48843 23914 ft 434 kts 273°
2025-10-05 23:27 10.53812 -65.51896 23915 ft 435 kts 273°
2025-10-05 23:27 10.54432 -65.61078 23915 ft 435 kts 273°
2025-10-05 23:28 10.54843 -65.67180 23915 ft 434 kts 273°
2025-10-05 23:28 10.55253 -65.73298 23916 ft 435 kts 273°
2025-10-05 23:29 10.55662 -65.79436 23916 ft 435 kts 273°
2025-10-05 23:30 10.56272 -65.88583 23915 ft 434 kts 273°
2025-10-05 23:30 10.56476 -65.91668 23915 ft 432 kts 273°
2025-10-05 23:30 10.56871 -65.97611 23380 ft 418 kts 273°
2025-10-05 23:31 10.57503 -66.03464 22304 ft 417 kts 282°
2025-10-05 23:31 10.59905 -66.08791 21030 ft 418 kts 304°
2025-10-05 23:32 10.61558 -66.11212 20383 ft 418 kts 306°
2025-10-05 23:32 10.64992 -66.15931 19155 ft 418 kts 307°
2025-10-05 23:33 10.70169 -66.23011 17245 ft 413 kts 307°
2025-10-05 23:33 10.73472 -66.27607 16052 ft 390 kts 306°
2025-10-05 23:34 10.76490 -66.31850 15745 ft 353 kts 306°
2025-10-05 23:34 10.79373 -66.35915 14788 ft 345 kts 306°
2025-10-05 23:35 10.81306 -66.40121 14277 ft 316 kts 278°
2025-10-05 23:35 10.81355 -66.44481 13580 ft 308 kts 266°
2025-10-05 23:36 10.81104 -66.48776 12920 ft 303 kts 266°
2025-10-05 23:36 10.80870 -66.53041 12247 ft 301 kts 266°
2025-10-05 23:37 10.80762 -66.55151 11872 ft 301 kts 267°
2025-10-05 23:37 10.80443 -66.61472 10838 ft 296 kts 266°
2025-10-05 23:38 10.80233 -66.65615 10144 ft 293 kts 266°
2025-10-05 23:38 10.80023 -66.69721 9432 ft 290 kts 266°
2025-10-05 23:39 10.79815 -66.73804 8757 ft 286 kts 266°
2025-10-05 23:39 10.80025 -66.77788 8071 ft 284 kts 290°
2025-10-05 23:40 10.81999 -66.81208 7400 ft 280 kts 304°
2025-10-05 23:40 10.84149 -66.84495 6720 ft 278 kts 302°
2025-10-05 23:41 10.85178 -66.86163 6383 ft 277 kts 302°
2025-10-05 23:41 10.88166 -66.91157 5391 ft 272 kts 297°
2025-10-05 23:42 10.88904 -66.94828 5016 ft 265 kts 266°
2025-10-05 23:42 10.88628 -66.98625 4986 ft 271 kts 266°
2025-10-05 23:43 10.88463 -67.02459 4987 ft 271 kts 268°
2025-10-05 23:43 10.88402 -67.04368 4987 ft 271 kts 268°
2025-10-05 23:44 10.87909 -67.08148 4980 ft 271 kts 245°
2025-10-05 23:44 10.85824 -67.11311 4987 ft 270 kts 232°
2025-10-05 23:45 10.83606 -67.14408 4984 ft 267 kts 234°
2025-10-05 23:45 10.80721 -67.18733 4984 ft 225 kts 235°
2025-10-05 23:46 10.78659 -67.21056 4370 ft 223 kts 203°
2025-10-05 23:46 10.75665 -67.21216 3987 ft 214 kts 174°
2025-10-05 23:47 10.72793 -67.21058 4000 ft 189 kts 176°
2025-10-05 23:47 10.71538 -67.21001 4024 ft 175 kts 175°
2025-10-05 23:48 10.69019 -67.20877 4005 ft 184 kts 175°
2025-10-05 23:48 10.65174 -67.20686 4007 ft 176 kts 175°
2025-10-05 23:49 10.64016 -67.20631 4014 ft 161 kts 175°
2025-10-05 23:49 10.61354 -67.18938 3644 ft 163 kts 124°
2025-10-05 23:50 10.60383 -67.16967 3264 ft 155 kts 107°
2025-10-05 23:50 10.59967 -67.14835 2891 ft 151 kts 93°
2025-10-05 23:51 10.59916 -67.13769 2693 ft 154 kts 90°
2025-10-05 23:51 10.59918 -67.11621 2286 ft 151 kts 88°
2025-10-05 23:52 10.59993 -67.08424 1703 ft 152 kts 87°
2025-10-05 23:52 10.60059 -67.06259 1309 ft 153 kts 88°
2025-10-05 23:53 10.60093 -67.05169 1110 ft 154 kts 88°
2025-10-05 23:54 10.60227 -67.00772 345 ft 150 kts 88°
2025-10-05 23:54 10.60271 -66.99272 338 ft 30 kts 88°
2025-10-05 23:54 10.60276 -66.99155 338 ft 10 kts 89°
2025-10-05 23:55 10.60278 -66.99165 338 ft 12 kts 265°
2025-10-05 23:55 10.60269 -66.99380 338 ft 18 kts 268°
2025-10-05 23:56 10.60247 -66.99658 339 ft 18 kts 221°
2025-10-05 23:56 10.60133 -66.99810 340 ft 16 kts 268°
2025-10-05 23:57 10.60118 -67.00036 340 ft 14 kts 268°
2025-10-05 23:57 10.60069 -67.00094 341 ft 6 kts 178°